Location: Unspecified
(0.0000°N, 0.0000°E)
Time: 02:21:32
(UTC+00:00)

Hubble Space Telescope - Pass Details

Date: 23 September 2022
Orbit: 531 x 535 km, 28.5° (Epoch: 25 September)

Event Time Altitude Azimuth Distance (km) Brightness Sun altitude
Exits shadow 03:39:50 17° 108° (ESE) 1,376 3.5 -33.2°
Drops below altitude 10° 03:40:53 10° 111° (ESE) 1,774 4.1 -32.9°
Sets 03:43:10 0° 114° (ESE) 2,666 5.2 -32.3°
